When you browse on this site, cookies collect data to enhance your experience and personalize the content and advertising you see.
Visit our Privacy Policy to learn more. By continuing to use the site, you agree to this use of cookies and data.
  • In Austria
  • List of Countries
  • For 7 days
  • Water Temperature
  • Weather Map
  • News
  • Weather Widgets
  • user-avatar
    Login

    Hourly Weather Sun Prairie

    Today, 18 August, Sunday

    Time Temperature Precipitation Wind Pressure Humidity
    00:00 +20°C° 0 mm 3 mps 731 mmHg 99%
    01:00 +19°C° 0 mm 3 mps 731 mmHg 98%
    02:00 +19°C° 0 mm 2 mps 730 mmHg 98%
    03:00 +19°C° 0 mm 2 mps 730 mmHg 97%
    04:00 +19°C° 0.2 mm 4 mps 730 mmHg 97%
    05:00 +20°C° 0.2 mm 5 mps 730 mmHg 97%
    06:00 +20°C° 0.2 mm 6 mps 729 mmHg 97%
    07:00 +20°C° 0.1 mm 6 mps 730 mmHg 93%
    08:00 +21°C° 0.1 mm 6 mps 730 mmHg 89%
    09:00 +21°C° 0.1 mm 7 mps 730 mmHg 86%
    10:00 +23°C° 0 mm 7 mps 730 mmHg 83%
    11:00 +24°C° 0 mm 8 mps 730 mmHg 81%
    12:00 +26°C° 0 mm 9 mps 730 mmHg 78%
    13:00 +26°C° 0 mm 7 mps 730 mmHg 81%
    14:00 +26°C° 0 mm 6 mps 730 mmHg 83%
    15:00 +26°C° 0 mm 4 mps 730 mmHg 86%
    16:00 +26°C° 0.1 mm 4 mps 730 mmHg 88%
    17:00 +25°C° 0.1 mm 3 mps 730 mmHg 90%
    18:00 +24°C° 0.1 mm 3 mps 730 mmHg 91%
    19:00 +22°C° 0 mm 3 mps 731 mmHg 93%
    20:00 +21°C° 0 mm 3 mps 731 mmHg 94%
    21:00 +20°C° 0 mm 3 mps 732 mmHg 95%
    22:00 +19°C° 0 mm 3 mps 732 mmHg 95%
    23:00 +18°C° 0 mm 2 mps 732 mmHg 95%

    Tomorrow, 19 August, Monday

    Time Temperature Precipitation Wind Pressure Humidity
    00:00 +17°C° 0 mm 2 mps 732 mmHg 95%
    01:00 +16°C° 0 mm 2 mps 733 mmHg 94%
    02:00 +15°C° 0 mm 2 mps 733 mmHg 93%
    03:00 +14°C° 0 mm 2 mps 733 mmHg 92%
    04:00 +14°C° 0 mm 2 mps 734 mmHg 92%
    05:00 +14°C° 0 mm 2 mps 734 mmHg 91%
    06:00 +13°C° 0 mm 2 mps 735 mmHg 91%
    07:00 +15°C° 0 mm 2 mps 735 mmHg 86%
    08:00 +18°C° 0 mm 1 mps 735 mmHg 81%
    09:00 +21°C° 0 mm 1 mps 735 mmHg 77%
    10:00 +22°C° 0 mm 1 mps 736 mmHg 72%
    11:00 +24°C° 0 mm 1 mps 736 mmHg 67%
    12:00 +25°C° 0 mm 1 mps 736 mmHg 62%
    13:00 +26°C° 0 mm 1 mps 736 mmHg 59%
    14:00 +26°C° 0 mm 1 mps 736 mmHg 57%
    15:00 +26°C° 0 mm 1 mps 735 mmHg 54%
    16:00 +25°C° 0 mm 1 mps 735 mmHg 59%
    17:00 +24°C° 0 mm 1 mps 735 mmHg 65%
    18:00 +21°C° 0 mm 0 mps 735 mmHg 71%
    19:00 +19°C° 0 mm 0 mps 735 mmHg 73%
    20:00 +18°C° 0 mm 0 mps 736 mmHg 76%
    21:00 +16°C° 0 mm 0 mps 736 mmHg 78%
    22:00 +16°C° 0 mm 0 mps 736 mmHg 81%
    23:00 +16°C° 0 mm 1 mps 736 mmHg 83%

    Day after tomorrow, 20 August, Tuesday

    Time Temperature Precipitation Wind Pressure Humidity
    00:00 +16°C° 0 mm 1 mps 736 mmHg 85%
    01:00 +15°C° 0 mm 1 mps 736 mmHg 87%
    02:00 +15°C° 0 mm 1 mps 735 mmHg 88%
    03:00 +15°C° 0 mm 1 mps 735 mmHg 90%
    04:00 +15°C° 0 mm 1 mps 735 mmHg 91%
    05:00 +15°C° 0 mm 2 mps 735 mmHg 92%
    06:00 +16°C° 0 mm 2 mps 735 mmHg 92%
    07:00 +18°C° 0 mm 2 mps 735 mmHg 89%
    08:00 +20°C° 0 mm 3 mps 735 mmHg 85%
    09:00 +22°C° 0 mm 3 mps 735 mmHg 81%
    10:00 +25°C° 0 mm 3 mps 735 mmHg 81%
    11:00 +26°C° 0 mm 4 mps 735 mmHg 81%
    12:00 +28°C° 0 mm 5 mps 735 mmHg 80%
    13:00 +28°C° 0.1 mm 4 mps 734 mmHg 81%
    14:00 +29°C° 0.1 mm 4 mps 734 mmHg 82%
    15:00 +29°C° 0.1 mm 4 mps 733 mmHg 82%
    16:00 +29°C° 0.6 mm 4 mps 733 mmHg 86%
    17:00 +28°C° 0.6 mm 3 mps 733 mmHg 89%
    18:00 +28°C° 0.6 mm 3 mps 732 mmHg 92%
    19:00 +27°C° 0.1 mm 3 mps 732 mmHg 94%
    20:00 +26°C° 0.1 mm 3 mps 733 mmHg 95%
    21:00 +26°C° 0.1 mm 3 mps 733 mmHg 96%
    22:00 +25°C° 0 mm 3 mps 733 mmHg 96%
    23:00 +25°C° 0 mm 4 mps 733 mmHg 96%

    21 August, Wednesday

    Time Temperature Precipitation Wind Pressure Humidity
    00:00 +23°C° 0 mm 4 mps 733 mmHg 96%
    01:00 +22°C° 0 mm 5 mps 733 mmHg 96%
    02:00 +21°C° 0 mm 5 mps 733 mmHg 96%
    03:00 +20°C° 0 mm 5 mps 734 mmHg 95%
    04:00 +19°C° 0 mm 4 mps 734 mmHg 96%
    05:00 +18°C° 0 mm 4 mps 735 mmHg 96%
    06:00 +17°C° 0 mm 3 mps 735 mmHg 97%
    07:00 +18°C° 0 mm 3 mps 736 mmHg 92%
    08:00 +19°C° 0 mm 3 mps 736 mmHg 88%
    09:00 +20°C° 0 mm 3 mps 737 mmHg 84%
    10:00 +20°C° 0 mm 3 mps 737 mmHg 77%
    11:00 +21°C° 0 mm 4 mps 736 mmHg 71%
    12:00 +22°C° 0 mm 4 mps 736 mmHg 65%
    13:00 +22°C° 0 mm 4 mps 736 mmHg 63%
    14:00 +22°C° 0 mm 4 mps 736 mmHg 62%
    15:00 +22°C° 0 mm 4 mps 736 mmHg 61%
    16:00 +21°C° 0 mm 4 mps 736 mmHg 66%
    17:00 +19°C° 0 mm 4 mps 736 mmHg 71%
    18:00 +18°C° 0 mm 3 mps 736 mmHg 77%
    19:00 +17°C° 0 mm 3 mps 736 mmHg 76%
    20:00 +16°C° 0 mm 2 mps 736 mmHg 76%
    21:00 +15°C° 0 mm 2 mps 736 mmHg 76%
    22:00 +15°C° 0 mm 1 mps 736 mmHg 77%
    23:00 +15°C° 0 mm 1 mps 736 mmHg 79%

    22 August, Thursday

    Time Temperature Precipitation Wind Pressure Humidity
    00:00 +15°C° 0 mm 1 mps 737 mmHg 80%
    01:00 +14°C° 0 mm 1 mps 736 mmHg 81%
    02:00 +14°C° 0 mm 2 mps 736 mmHg 81%
    03:00 +14°C° 0 mm 2 mps 736 mmHg 82%
    04:00 +14°C° 0 mm 2 mps 737 mmHg 83%
    05:00 +14°C° 0 mm 2 mps 737 mmHg 85%
    06:00 +14°C° 0 mm 2 mps 737 mmHg 86%
    07:00 +15°C° 0 mm 2 mps 737 mmHg 80%
    08:00 +17°C° 0 mm 2 mps 737 mmHg 75%
    09:00 +18°C° 0 mm 2 mps 738 mmHg 69%
    10:00 +19°C° 0 mm 2 mps 738 mmHg 66%
    11:00 +20°C° 0 mm 2 mps 738 mmHg 62%
    12:00 +20°C° 0 mm 2 mps 738 mmHg 59%
    13:00 +20°C° 0 mm 2 mps 738 mmHg 60%
    14:00 +21°C° 0 mm 1 mps 737 mmHg 61%
    15:00 +21°C° 0 mm 1 mps 737 mmHg 62%
    16:00 +20°C° 0 mm 1 mps 737 mmHg 66%
    17:00 +20°C° 0 mm 1 mps 737 mmHg 70%
    18:00 +17°C° 0 mm 0 mps 736 mmHg 74%
    19:00 +18°C° 0 mm 1 mps 736 mmHg 77%
    20:00 +15°C° 0 mm 1 mps 737 mmHg 79%
    21:00 +14°C° 0 mm 1 mps 737 mmHg 81%
    22:00 +13°C° 0 mm 1 mps 737 mmHg 83%
    23:00 +13°C° 0 mm 1 mps 737 mmHg 85%

    23 August, Friday

    Time Temperature Precipitation Wind Pressure Humidity
    00:00 +12°C° 0 mm 1 mps 737 mmHg 87%
    01:00 +12°C° 0 mm 1 mps 737 mmHg 88%
    02:00 +12°C° 0 mm 1 mps 737 mmHg 89%
    03:00 +11°C° 0 mm 1 mps 737 mmHg 90%
    04:00 +11°C° 0 mm 1 mps 737 mmHg 90%
    05:00 +12°C° 0 mm 1 mps 737 mmHg 90%
    06:00 +12°C° 0 mm 1 mps 737 mmHg 90%
    07:00 +14°C° 0 mm 1 mps 737 mmHg 85%
    08:00 +16°C° 0 mm 2 mps 738 mmHg 80%
    09:00 +18°C° 0 mm 2 mps 738 mmHg 76%
    10:00 +20°C° 0 mm 2 mps 737 mmHg 73%
    11:00 +21°C° 0 mm 3 mps 737 mmHg 70%
    12:00 +22°C° 0 mm 3 mps 737 mmHg 67%
    13:00 +22°C° 0 mm 3 mps 736 mmHg 69%
    14:00 +22°C° 0 mm 4 mps 736 mmHg 71%
    15:00 +23°C° 0 mm 4 mps 736 mmHg 73%
    16:00 +22°C° 0 mm 4 mps 735 mmHg 77%
    17:00 +21°C° 0 mm 3 mps 735 mmHg 82%
    18:00 +21°C° 0 mm 3 mps 735 mmHg 86%
    19:00 +20°C° 0 mm 3 mps 735 mmHg 89%
    20:00 +19°C° 0 mm 3 mps 735 mmHg 92%
    21:00 +18°C° 0 mm 3 mps 735 mmHg 94%
    22:00 +18°C° 0.2 mm 3 mps 735 mmHg 94%
    23:00 +18°C° 0.2 mm 4 mps 735 mmHg 94%
    Show more